Zurück zum Katalog

STARLINK-11526

AktivKommunikationVLEO
NORAD 63007·PAYLOAD·🇺🇸 United States

Gestartet Feb 15, 2025 von Cape Canaveral Space Force Station

Loading…

Nächste Überflüge (nächste 24 Stunden)

TLE

AktuellSource: CelesTrak SupGP

Epoche: Sep 14, 2026, 21:14 UTC

1 63007C 25032C   26257.88520833  .00018343  00000+0  14279-3 0  2578
2 63007  43.0001 134.4944 0001868 255.3610 127.6226 15.70775460    19

Verfolge STARLINK-11526 in Echtzeit mit AllMySat

Download on the App Store